Голубая

Россия / Амурская область     51°16′45″N   127°49′13″E
темп.,
°C
ветер,
м/с
пор.,
м/с
влажн.,
%
обл.,
%
осадки,
мм/ч
давл.,
гПа
погр.,
м
9 мая, вс
вс900:00+7св61170100 0.0 1001456
03:00+5св2485100 0.0 1002116
06:00+5с4681100 0.1 1004526
09:00+6ссв5675100 0.1 1005583
12:00+8с4460100 0.0 10061164
15:00+9с3455100 0.1 10061188
18:00+9с3457100 0.0 10071124
21:00+7ссв2369100 0.0 100976
10 мая, пн
пн1000:00+6св1182100 0.0 101039
03:00+5сз227889 0.0 101046
06:00+5сз2575100 0.0 1011189
09:00+8ссз4567100 0.0 1011771
12:00+10ссв4464100 0.0 10111037
15:00+12св3451100 0.1 10111462
18:00+12в3250100 0.0 1011503
21:00+7юв337993 0.0 101349
11 мая, вт
вт1100:00+6ю2284100 0.0 101328
03:00+5ююв338476 0.0 101322
06:00+5ююв378517 0.0 1014166
09:00+11ююв6858100 0.0 1013613
12:00+14ю5743100 0.0 10121308
15:00+15юв7939100 0.0 10091556
18:00+15юв81142100 0.0 10071415
21:00+13юв101754100 0.0 1006796
12 мая, ср
ср1200:00+11ююв91863100 0.0 1005760
03:00+9юв101976100 1.0 1002838
06:00+9юв122284100 5.3 9981153
09:00+9юв122183100 6.3 9961365
12:00+11ююв81375100 0.6 9941288
15:00+12ю91269100 1.6 9931408
18:00+8ююз4588100 1.7 993518
21:00+7зюз3790100 2.4 995367
13 мая, чт
чт1300:00+6з71189100 0.2 997670
03:00+6з71286100 0.6 998937
06:00+6з7137814 0.1 1000816
09:00+9з913555 0.1 10011113
12:00+15з813335 0.0 10012591
15:00+16з81229100 0.0 10012893
18:00+14ссз6836100 0.0 10021140
21:00+10с3353100 0.0 100438